Weather Roundup
Issued by NWS

Home | Current Version | Previous Version | Graphics & Text | Print | Product List | Glossary Off
Versions: 1 2 3 4 5 6 7 8 9 10 11 12 13 14 15 16 17 18 19 20 21 22 23 24 25 26 27 28 29 30 31 32 33 34 35 36 37 38 39 40 41 42 43 44 45 46 47 48 49 50

000
NZUS93 KARX 291010
HRRWXR

CURRENT HOURLY OBSERVATIONS ACROSS
MUCH OF THE UPPER MISSISSIPPI VALLEY
NATIONAL WEATHER SERVICE LA CROSSE WI
500 AM CDT WED JUL 29 2015


...SOUTHEAST MINNESOTA...


CITY           SKY/WX    TMP DP  RH WIND       PRES   REMARKS
ROCHESTER      PTCLDY    62  57  83 W12       30.00R
ROCHESTER/MAYO FAIR      67  55  66 W12G18    29.99S
WINONA         MOCLDY    70  55  60 W3        29.97R
AUSTIN         MOCLDY    64  57  77 W5        30.01S
ALBERT LEA     PTCLDY    64  55  72 W6        30.02S
DODGE CENTER   PTCLDY    61  57  88 W7        30.00S
PRESTON        MOCLDY    63  56  80 W8        30.01R
OWATONNA       PTCLDY    61  55  82 SW8       29.99F
FARIBAULT      PTCLDY    63  57  82 S5        29.98S
$$

...ELSEWHERE IN MINNESOTA...


CITY           SKY/WX    TMP DP  RH WIND       PRES   REMARKS
MINNEAPOLIS    PTCLDY    67  53  61 W13       29.92S
INTNL FALLS    LGT RAIN  63  52  67 SW21G30   29.53F
DULUTH         CLEAR     65  47  52 SW17G26   29.72F
RED WING       PTCLDY    66  55  68 CALM      29.93S
REDWOOD FALLS  CLEAR     66  50  56 W18G26    29.97S
MANKATO        CLEAR     61  52  72 W9        29.99R
WORTHINGTON    CLEAR     57  50  77 SW8       30.07R
FAIRMONT       CLEAR     61  52  72 W8        30.03S
$$

...SOUTHWEST WISCONSIN...


CITY           SKY/WX    TMP DP  RH WIND       PRES   REMARKS
LA CROSSE      CLOUDY    72  59  63 W10       29.96R
PRAIRIE DU CHI CLOUDY    73  63  69 W5        29.98R
BOSCOBEL       CLOUDY    74  68  81 SW3       29.97R
LONE ROCK      CLOUDY    74  70  87 W6        29.96R
PLATTEVILLE    CLOUDY    71  68  89 N8G16     29.99R
FORT MC COY    CLOUDY    70  60  71 SW3       29.97R
VIROQUA        PTSUNNY   69  62  77 W5        30.00R
WIS DELLS      CLOUDY    74  66  76 W6        29.95R
$$

...ELSEWHERE IN WISCONSIN...


CITY           SKY/WX    TMP DP  RH WIND       PRES   REMARKS
MILWAUKEE      CLOUDY    77  71  82 W8        29.90S
MADISON        LGT RAIN  74  71  91 CALM      29.94S
GREEN BAY      CLOUDY    75  71  87 W7        29.86S
EAU CLAIRE     PTCLDY    65  58  78 SW7       29.91R
BLACK RVR FLS  FAIR      66  61  84 SW5       29.94R
MEDFORD        MOCLDY    64  57  80 SW5       29.92R
WAUSAU         CLOUDY    71  56  58 W9        29.89S
WIS RAPIDS     CLOUDY    72  58  61 W6        29.93S
MARSHFIELD     CLOUDY    68  57  68 W8        29.92S
RICE LAKE      CLEAR     63  54  74 SW7       29.89F
$$

...NORTHEAST IOWA...


CITY           SKY/WX    TMP DP  RH WIND       PRES   REMARKS
DECORAH        CLOUDY    70  61  73 NW6G12    30.00R
MASON CITY     MOCLDY    60  58  92 W9        30.06R
CHARLES CITY   CLOUDY    64  63  94 W6        30.03R
OELWEIN          N/A     70  66  88 NW6       30.02S
$$

...ELSEWHERE IN IOWA...


CITY           SKY/WX    TMP DP  RH WIND       PRES   REMARKS
DES MOINES     CLOUDY    73  69  87 W5        30.05R
IOWA CITY      CLOUDY    72  70  93 SW5       30.01R
FORT DODGE     MOCLDY    63  57  82 CALM      30.08R
$$

...NORTHERN ILLINOIS...


CITY           SKY/WX    TMP DP  RH WIND       PRES   REMARKS
CHICAGO-OHARE  CLOUDY    76  70  82 SW6       29.92F
CHICAGO-MIDWAY CLOUDY    77  71  82 SW9       29.92S
MOLINE         CLOUDY    75  71  87 W12       29.99R
ROCKFORD       CLOUDY    74  71  91 S5        29.96R
PEORIA         CLOUDY    76  73  91 NW3       29.97R
$$

NOTE: "FAIR" INDICATES FEW OR NO CLOUDS BELOW 12,000 FEET WITH NO
SIGNIFICANT WEATHER AND/OR OBSTRUCTIONS TO VISIBILITY. WIND
SPEEDS ARE IN MILES-PER-HOUR.



USA.gov is the U.S. government's official web portal to all federal, state and local government web resources and services.